TimeCST,TemperatureF,Dew PointF,Humidity,Sea Level PressureIn,VisibilityMPH,Wind Direction,Wind SpeedMPH,Gust SpeedMPH,PrecipitationIn,Events,Conditions,WindDirDegrees,DateUTC
12:56 AM,17.1,14.0,88,29.98,-9999.0,North,9.2,-,N/A,,Unknown,10,2012-12-13 06:56:00
1:56 AM,12.9,10.9,92,30.01,-9999.0,North,9.2,-,N/A,,Unknown,360,2012-12-13 07:56:00
2:56 AM,14.0,12.0,92,30.02,-9999.0,North,13.8,-,N/A,,Unknown,360,2012-12-13 08:56:00
3:56 AM,14.0,10.9,88,30.04,-9999.0,North,15.0,-,N/A,,Unknown,350,2012-12-13 09:56:00
4:56 AM,12.9,10.0,88,30.06,-9999.0,North,18.4,-,N/A,,Unknown,10,2012-12-13 10:56:00
5:56 AM,12.9,10.0,88,30.08,-9999.0,North,15.0,-,N/A,,Unknown,360,2012-12-13 11:56:00
6:56 AM,12.9,9.0,84,30.11,-9999.0,North,17.3,-,N/A,,Unknown,360,2012-12-13 12:56:00
7:56 AM,12.9,9.0,84,30.12,-9999.0,North,13.8,-,N/A,,Unknown,350,2012-12-13 13:56:00
8:56 AM,12.9,10.0,88,30.14,-9999.0,North,12.7,-,N/A,,Unknown,360,2012-12-13 14:56:00
9:56 AM,14.0,10.0,84,30.17,-9999.0,North,13.8,-,N/A,,Unknown,350,2012-12-13 15:56:00
10:56 AM,14.0,10.0,84,30.19,-9999.0,North,13.8,-,N/A,,Unknown,350,2012-12-13 16:56:00
11:56 AM,14.0,10.0,84,30.20,-9999.0,North,15.0,-,N/A,,Unknown,350,2012-12-13 17:56:00
12:56 PM,16.0,10.9,81,30.19,-9999.0,North,10.4,-,N/A,,Unknown,350,2012-12-13 18:56:00
1:56 PM,17.1,12.0,81,30.19,-9999.0,North,9.2,-,N/A,,Unknown,360,2012-12-13 19:56:00
2:56 PM,17.1,10.9,77,30.17,-9999.0,North,6.9,-,N/A,,Unknown,10,2012-12-13 20:56:00
3:56 PM,16.0,10.0,77,30.17,-9999.0,North,3.5,-,N/A,,Unknown,10,2012-12-13 21:56:00
4:56 PM,14.0,10.0,84,30.18,-9999.0,Calm,Calm,-,N/A,,Unknown,0,2012-12-13 22:56:00
5:56 PM,10.9,7.0,84,30.19,-9999.0,South,3.5,-,N/A,,Unknown,170,2012-12-13 23:56:00
6:56 PM,6.1,3.9,91,30.21,-9999.0,Calm,Calm,-,N/A,,Unknown,0,2012-12-14 00:56:00
7:56 PM,9.0,7.0,92,30.21,-9999.0,South,3.5,-,N/A,,Unknown,170,2012-12-14 01:56:00
8:56 PM,7.0,3.9,87,30.20,-9999.0,Calm,Calm,-,N/A,,Unknown,0,2012-12-14 02:56:00
9:56 PM,9.0,7.0,92,30.19,-9999.0,South,4.6,-,N/A,,Unknown,180,2012-12-14 03:56:00
10:56 PM,9.0,7.0,92,30.19,-9999.0,South,4.6,-,N/A,,Unknown,180,2012-12-14 04:56:00
11:56 PM,6.1,3.9,91,30.18,-9999.0,SE,8.1,-,N/A,,Unknown,130,2012-12-14 05:56:00